Year,Month,Day,Hour,Minute,Value (Times are PST for temperature in C)
2012,03,29,00,00,6.00
2012,03,29,00,01,6.00
2012,03,29,00,02,6.00
2012,03,29,00,03,6.00
2012,03,29,00,04,6.00
2012,03,29,00,05,6.00
2012,03,29,00,06,6.00
2012,03,29,00,07,6.00
2012,03,29,00,08,6.00
2012,03,29,00,09,6.00
2012,03,29,00,10,6.00
2012,03,29,00,11,6.00
2012,03,29,00,12,6.00
2012,03,29,00,13,6.00
2012,03,29,00,14,6.00
2012,03,29,00,15,6.00
2012,03,29,00,16,6.00
2012,03,29,00,17,6.00
2012,03,29,00,18,5.90
2012,03,29,00,19,5.90
2012,03,29,00,20,5.90
2012,03,29,00,21,5.90
2012,03,29,00,22,5.90
2012,03,29,00,23,5.90
2012,03,29,00,24,5.90
2012,03,29,00,25,5.90
2012,03,29,00,26,5.90
2012,03,29,00,27,5.90
2012,03,29,00,28,5.90
2012,03,29,00,29,5.90
2012,03,29,00,30,5.90
2012,03,29,00,31,5.90
2012,03,29,00,32,5.80
2012,03,29,00,33,5.80
2012,03,29,00,34,5.80
2012,03,29,00,35,5.80
2012,03,29,00,36,5.80
2012,03,29,00,37,5.80
2012,03,29,00,38,5.80
2012,03,29,00,39,5.80
2012,03,29,00,40,5.80
2012,03,29,00,41,5.80
2012,03,29,00,42,5.80
2012,03,29,00,43,5.80
2012,03,29,00,44,5.80
2012,03,29,00,45,5.80
2012,03,29,00,46,5.80
2012,03,29,00,47,5.80
2012,03,29,00,48,5.80
2012,03,29,00,49,5.80
2012,03,29,00,50,5.80
2012,03,29,00,51,5.80
2012,03,29,00,52,5.90
2012,03,29,00,53,5.90
2012,03,29,00,54,5.90
2012,03,29,00,55,5.90
2012,03,29,00,56,5.90
2012,03,29,00,57,5.90
2012,03,29,00,58,5.90
2012,03,29,00,59,5.90
2012,03,29,01,00,5.90
2012,03,29,01,01,5.90
2012,03,29,01,02,5.90
2012,03,29,01,03,5.90
2012,03,29,01,04,5.90
2012,03,29,01,05,5.90
2012,03,29,01,06,5.90
2012,03,29,01,07,5.90
2012,03,29,01,08,5.90
2012,03,29,01,09,5.90
2012,03,29,01,10,6.00
2012,03,29,01,11,6.00
2012,03,29,01,12,6.00
2012,03,29,01,13,6.00
2012,03,29,01,14,6.00
2012,03,29,01,15,6.10
2012,03,29,01,16,6.10
2012,03,29,01,17,6.10
2012,03,29,01,18,6.10
2012,03,29,01,19,6.10
2012,03,29,01,20,6.10
2012,03,29,01,21,6.10
2012,03,29,01,22,6.10
2012,03,29,01,23,6.10
2012,03,29,01,24,6.10
2012,03,29,01,25,6.10
2012,03,29,01,26,6.10
2012,03,29,01,27,6.10
2012,03,29,01,28,6.10
2012,03,29,01,29,6.10
2012,03,29,01,30,6.10
2012,03,29,01,31,6.10
2012,03,29,01,32,6.10
2012,03,29,01,33,6.10
2012,03,29,01,34,6.10
2012,03,29,01,35,6.10
2012,03,29,01,36,6.10
2012,03,29,01,37,6.10
2012,03,29,01,38,6.10
2012,03,29,01,39,6.10
2012,03,29,01,40,6.10
2012,03,29,01,41,6.10
2012,03,29,01,42,6.10
2012,03,29,01,43,6.10
2012,03,29,01,44,6.10
2012,03,29,01,45,6.10
2012,03,29,01,46,6.10
2012,03,29,01,47,6.10
2012,03,29,01,48,6.00
2012,03,29,01,49,6.00
2012,03,29,01,50,6.00
2012,03,29,01,51,6.00
2012,03,29,01,52,6.00
2012,03,29,01,53,6.00
2012,03,29,01,54,6.00
2012,03,29,01,55,6.00
2012,03,29,01,56,6.00
2012,03,29,01,57,6.00
2012,03,29,01,58,6.00
2012,03,29,01,59,6.00
2012,03,29,02,00,5.90
2012,03,29,02,01,5.90
2012,03,29,02,02,5.90
2012,03,29,02,03,5.90
2012,03,29,02,04,5.90
2012,03,29,02,05,5.90
2012,03,29,02,06,5.90
2012,03,29,02,07,5.90
2012,03,29,02,08,5.90
2012,03,29,02,09,5.90
2012,03,29,02,10,5.90
2012,03,29,02,11,5.90
2012,03,29,02,12,5.90
2012,03,29,02,13,5.90
2012,03,29,02,14,5.90
2012,03,29,02,15,5.90
2012,03,29,02,16,5.90
2012,03,29,02,17,5.90
2012,03,29,02,18,5.90
2012,03,29,02,19,5.80
2012,03,29,02,20,5.80
2012,03,29,02,21,5.80
2012,03,29,02,22,5.80
2012,03,29,02,23,5.80
2012,03,29,02,24,5.80
2012,03,29,02,25,5.80
2012,03,29,02,26,5.80
2012,03,29,02,27,5.80
2012,03,29,02,28,5.80
2012,03,29,02,29,5.80
2012,03,29,02,30,5.80
2012,03,29,02,31,5.80
2012,03,29,02,32,5.80
2012,03,29,02,33,5.80
2012,03,29,02,34,5.80
2012,03,29,02,35,5.80
2012,03,29,02,36,5.80
2012,03,29,02,37,5.80
2012,03,29,02,38,5.80
2012,03,29,02,39,5.80
2012,03,29,02,40,5.70
2012,03,29,02,41,5.70
2012,03,29,02,42,5.70
2012,03,29,02,43,5.70
2012,03,29,02,44,5.70
2012,03,29,02,45,5.70
2012,03,29,02,46,5.70
2012,03,29,02,47,5.70
2012,03,29,02,48,5.70
2012,03,29,02,49,5.70
2012,03,29,02,50,5.70
2012,03,29,02,51,5.70
2012,03,29,02,52,5.70
2012,03,29,02,53,5.70
2012,03,29,02,54,5.70
2012,03,29,02,55,5.70
2012,03,29,02,56,5.70
2012,03,29,02,57,5.70
2012,03,29,02,58,5.70
2012,03,29,02,59,5.70
2012,03,29,03,00,5.70
2012,03,29,03,01,5.70
2012,03,29,03,02,5.70
2012,03,29,03,03,5.70
2012,03,29,03,04,5.70
2012,03,29,03,05,5.70
2012,03,29,03,06,5.70
2012,03,29,03,07,5.70
2012,03,29,03,08,5.70
2012,03,29,03,09,5.70
2012,03,29,03,10,5.70
2012,03,29,03,11,5.70
2012,03,29,03,12,5.70
2012,03,29,03,13,5.70
2012,03,29,03,14,5.70
2012,03,29,03,15,5.70
2012,03,29,03,16,5.70
2012,03,29,03,17,5.70
2012,03,29,03,18,5.70
2012,03,29,03,19,5.70
2012,03,29,03,20,5.70
2012,03,29,03,21,5.70
2012,03,29,03,22,5.70
2012,03,29,03,23,5.70
2012,03,29,03,24,5.70
2012,03,29,03,25,5.70
2012,03,29,03,26,5.70
2012,03,29,03,27,5.70
2012,03,29,03,28,5.70
2012,03,29,03,29,5.70
2012,03,29,03,30,5.70
2012,03,29,03,31,5.70
2012,03,29,03,32,5.70
2012,03,29,03,33,5.70
2012,03,29,03,34,5.70
2012,03,29,03,35,5.70
2012,03,29,03,36,5.70
2012,03,29,03,37,5.70
2012,03,29,03,38,5.70
2012,03,29,03,39,5.70
2012,03,29,03,40,5.70
2012,03,29,03,41,5.70
2012,03,29,03,42,5.70
2012,03,29,03,43,5.70
2012,03,29,03,44,5.70
2012,03,29,03,45,5.70
2012,03,29,03,46,5.70
2012,03,29,03,47,5.70
2012,03,29,03,48,5.70
2012,03,29,03,49,5.70
2012,03,29,03,50,5.70
2012,03,29,03,51,5.70
2012,03,29,03,52,5.70
2012,03,29,03,53,5.70
2012,03,29,03,54,5.70
2012,03,29,03,55,5.70
2012,03,29,03,56,5.70
2012,03,29,03,57,5.70
2012,03,29,03,58,5.70
2012,03,29,03,59,5.70
2012,03,29,04,00,5.70
2012,03,29,04,01,5.70
2012,03,29,04,02,5.70
2012,03,29,04,03,5.70
2012,03,29,04,04,5.70
2012,03,29,04,05,5.70
2012,03,29,04,06,5.70
2012,03,29,04,07,5.70
2012,03,29,04,08,5.70
2012,03,29,04,09,5.70
2012,03,29,04,10,5.70
2012,03,29,04,11,5.70
2012,03,29,04,12,5.70
2012,03,29,04,13,5.70
2012,03,29,04,14,5.70
2012,03,29,04,15,5.70
2012,03,29,04,16,5.70
2012,03,29,04,17,5.70
2012,03,29,04,18,5.70
2012,03,29,04,19,5.70
2012,03,29,04,20,5.70
2012,03,29,04,21,5.70
2012,03,29,04,22,5.70
2012,03,29,04,23,5.70
2012,03,29,04,24,5.70
2012,03,29,04,25,5.70
2012,03,29,04,26,5.70
2012,03,29,04,27,5.70
2012,03,29,04,28,5.70
2012,03,29,04,29,5.70
2012,03,29,04,30,5.70
2012,03,29,04,31,5.70
2012,03,29,04,32,5.70
2012,03,29,04,33,5.70
2012,03,29,04,34,5.70
2012,03,29,04,35,5.70
2012,03,29,04,36,5.70
2012,03,29,04,37,5.70
2012,03,29,04,38,5.70
2012,03,29,04,39,5.70
2012,03,29,04,40,5.70
2012,03,29,04,41,5.70
2012,03,29,04,42,5.60
2012,03,29,04,43,5.60
2012,03,29,04,44,5.70
2012,03,29,04,45,5.70
2012,03,29,04,46,5.70
2012,03,29,04,47,5.70
2012,03,29,04,48,5.70
2012,03,29,04,49,5.70
2012,03,29,04,50,5.70
2012,03,29,04,51,5.70
2012,03,29,04,52,5.70
2012,03,29,04,53,5.70
2012,03,29,04,54,5.70
2012,03,29,04,55,5.70
2012,03,29,04,56,5.70
2012,03,29,04,57,5.70
2012,03,29,04,58,5.70
2012,03,29,04,59,5.70
2012,03,29,05,00,5.70
2012,03,29,05,01,5.70
2012,03,29,05,02,5.70
2012,03,29,05,03,5.70
2012,03,29,05,04,5.70
2012,03,29,05,05,5.70
2012,03,29,05,06,5.70
2012,03,29,05,07,5.70
2012,03,29,05,08,5.70
2012,03,29,05,09,5.70
2012,03,29,05,10,5.70
2012,03,29,05,11,5.80
2012,03,29,05,12,5.80
2012,03,29,05,13,5.80
2012,03,29,05,14,5.80
2012,03,29,05,15,5.80
2012,03,29,05,16,5.80
2012,03,29,05,17,5.80
2012,03,29,05,18,5.80
2012,03,29,05,19,5.80
2012,03,29,05,20,5.80
2012,03,29,05,21,5.80
2012,03,29,05,22,5.90
2012,03,29,05,23,5.90
2012,03,29,05,24,5.90
2012,03,29,05,25,5.90
2012,03,29,05,26,5.90
2012,03,29,05,27,5.90
2012,03,29,05,28,5.90
2012,03,29,05,29,5.90
2012,03,29,05,30,5.90
2012,03,29,05,31,5.90
2012,03,29,05,32,5.90
2012,03,29,05,33,5.90
2012,03,29,05,34,5.90
2012,03,29,05,35,5.90
2012,03,29,05,36,5.90
2012,03,29,05,37,5.90
2012,03,29,05,38,5.90
2012,03,29,05,39,5.90
2012,03,29,05,40,5.90
2012,03,29,05,41,5.90
2012,03,29,05,42,5.90
2012,03,29,05,43,5.90
2012,03,29,05,44,5.90
2012,03,29,05,45,5.90
2012,03,29,05,46,5.80
2012,03,29,05,47,5.80
2012,03,29,05,48,5.80
2012,03,29,05,49,5.80
2012,03,29,05,50,5.80
2012,03,29,05,51,5.80
2012,03,29,05,52,5.80
2012,03,29,05,53,5.80
2012,03,29,05,54,5.80
2012,03,29,05,55,5.80
2012,03,29,05,56,5.80
2012,03,29,05,57,5.80
2012,03,29,05,58,5.80
2012,03,29,05,59,5.80
2012,03,29,06,00,5.80
2012,03,29,06,01,5.80
2012,03,29,06,02,5.80
2012,03,29,06,03,5.70
2012,03,29,06,04,5.70
2012,03,29,06,05,5.70
2012,03,29,06,06,5.70
2012,03,29,06,07,5.70
2012,03,29,06,08,5.70
2012,03,29,06,09,5.70
2012,03,29,06,10,5.70
2012,03,29,06,11,5.70
2012,03,29,06,12,5.70
2012,03,29,06,13,5.70
2012,03,29,06,14,5.70
2012,03,29,06,15,5.70
2012,03,29,06,16,5.70
2012,03,29,06,17,5.70
2012,03,29,06,18,5.70
2012,03,29,06,19,5.70
2012,03,29,06,20,5.70
2012,03,29,06,21,5.70
2012,03,29,06,22,5.70
2012,03,29,06,23,5.70
2012,03,29,06,24,5.70
2012,03,29,06,25,5.70
2012,03,29,06,26,5.70
2012,03,29,06,27,5.70
2012,03,29,06,28,5.70
2012,03,29,06,29,5.70
2012,03,29,06,30,5.70
2012,03,29,06,31,5.70
2012,03,29,06,32,5.70
2012,03,29,06,33,5.70
2012,03,29,06,34,5.70
2012,03,29,06,35,5.70
2012,03,29,06,36,5.70
2012,03,29,06,37,5.70
2012,03,29,06,38,5.70
2012,03,29,06,39,5.70
2012,03,29,06,40,5.70
2012,03,29,06,41,5.70
2012,03,29,06,42,5.70
2012,03,29,06,43,5.70
2012,03,29,06,44,5.70
2012,03,29,06,45,5.70
2012,03,29,06,46,5.70
2012,03,29,06,47,5.70
2012,03,29,06,48,5.70
2012,03,29,06,49,5.70
2012,03,29,06,50,5.70
2012,03,29,06,51,5.70
2012,03,29,06,52,5.70
2012,03,29,06,53,5.70
2012,03,29,06,54,5.70
2012,03,29,06,55,5.70
2012,03,29,06,56,5.70
2012,03,29,06,57,5.70
2012,03,29,06,58,5.70
2012,03,29,06,59,5.70
2012,03,29,07,00,5.70
2012,03,29,07,01,5.70
2012,03,29,07,02,5.70
2012,03,29,07,03,5.70
2012,03,29,07,04,5.70
2012,03,29,07,05,5.60
2012,03,29,07,06,5.60
2012,03,29,07,07,5.60
2012,03,29,07,08,5.60
2012,03,29,07,09,5.60
2012,03,29,07,10,5.60
2012,03,29,07,11,5.60
2012,03,29,07,12,5.60
2012,03,29,07,13,5.60
2012,03,29,07,14,5.60
2012,03,29,07,15,5.60
2012,03,29,07,16,5.60
2012,03,29,07,17,5.60
2012,03,29,07,18,5.60
2012,03,29,07,19,5.60
2012,03,29,07,20,5.60
2012,03,29,07,21,5.50
2012,03,29,07,22,5.50
2012,03,29,07,23,5.50
2012,03,29,07,24,5.50
2012,03,29,07,25,5.50
2012,03,29,07,26,5.50
2012,03,29,07,27,5.50
2012,03,29,07,28,5.50
2012,03,29,07,29,5.50
2012,03,29,07,30,5.40
2012,03,29,07,31,5.40
2012,03,29,07,32,5.40
2012,03,29,07,33,5.40
2012,03,29,07,34,5.40
2012,03,29,07,35,5.40
2012,03,29,07,36,5.40
2012,03,29,07,37,5.40
2012,03,29,07,38,5.40
2012,03,29,07,39,5.40
2012,03,29,07,40,5.40
2012,03,29,07,41,5.40
2012,03,29,07,42,5.30
2012,03,29,07,43,5.30
2012,03,29,07,44,5.30
2012,03,29,07,45,5.30
2012,03,29,07,46,5.30
2012,03,29,07,47,5.30
2012,03,29,07,48,5.30
2012,03,29,07,49,5.30
2012,03,29,07,50,5.30
2012,03,29,07,51,5.20
2012,03,29,07,52,5.20
2012,03,29,07,53,5.20
2012,03,29,07,54,5.20
2012,03,29,07,55,5.20
2012,03,29,07,56,5.20
2012,03,29,07,57,5.20
2012,03,29,07,58,5.20
2012,03,29,07,59,5.20
2012,03,29,08,00,5.20
2012,03,29,08,01,5.20
2012,03,29,08,02,5.20
2012,03,29,08,03,5.20
2012,03,29,08,04,5.20
2012,03,29,08,05,5.20
2012,03,29,08,06,5.20
2012,03,29,08,07,5.20
2012,03,29,08,08,5.20
2012,03,29,08,09,5.20
2012,03,29,08,10,5.20
2012,03,29,08,11,5.20
2012,03,29,08,12,5.20
2012,03,29,08,13,5.20
2012,03,29,08,14,5.20
2012,03,29,08,15,5.30
2012,03,29,08,16,5.30
2012,03,29,08,17,5.30
2012,03,29,08,18,5.30
2012,03,29,08,19,5.30
2012,03,29,08,20,5.30
2012,03,29,08,21,5.40
2012,03,29,08,22,5.40
2012,03,29,08,23,5.40
2012,03,29,08,24,5.40
2012,03,29,08,25,5.40
2012,03,29,08,26,5.40
2012,03,29,08,27,5.50
2012,03,29,08,28,5.50
2012,03,29,08,29,5.50
2012,03,29,08,30,5.60
2012,03,29,08,31,5.60
2012,03,29,08,32,5.60
2012,03,29,08,33,5.60
2012,03,29,08,34,5.70
2012,03,29,08,35,5.70
2012,03,29,08,36,5.70
2012,03,29,08,37,5.70
2012,03,29,08,38,5.80
2012,03,29,08,39,5.80
2012,03,29,08,40,5.80
2012,03,29,08,41,5.80
2012,03,29,08,42,5.80
2012,03,29,08,43,5.80
2012,03,29,08,44,5.80
2012,03,29,08,45,5.80
2012,03,29,08,46,5.90
2012,03,29,08,47,5.90
2012,03,29,08,48,5.90
2012,03,29,08,49,5.90
2012,03,29,08,50,5.90
2012,03,29,08,51,5.90
2012,03,29,08,52,5.90
2012,03,29,08,53,5.90
2012,03,29,08,54,6.00
2012,03,29,08,55,6.00
2012,03,29,08,56,6.00
2012,03,29,08,57,6.10
2012,03,29,08,58,6.10
2012,03,29,08,59,6.10
2012,03,29,09,00,6.10
2012,03,29,09,01,6.10
2012,03,29,09,02,6.10
2012,03,29,09,03,6.10
2012,03,29,09,04,6.20
2012,03,29,09,05,6.20
2012,03,29,09,06,6.20
2012,03,29,09,07,6.20
2012,03,29,09,08,6.20
2012,03,29,09,09,6.20
2012,03,29,09,10,6.30
2012,03,29,09,11,6.30
2012,03,29,09,12,6.30
2012,03,29,09,13,6.30
2012,03,29,09,14,6.30
2012,03,29,09,15,6.30
2012,03,29,09,16,6.30
2012,03,29,09,17,6.30
2012,03,29,09,18,6.30
2012,03,29,09,19,6.40
2012,03,29,09,20,6.40
2012,03,29,09,21,6.40
2012,03,29,09,22,6.40
2012,03,29,09,23,6.40
2012,03,29,09,24,6.40
2012,03,29,09,25,6.50
2012,03,29,09,26,6.50
2012,03,29,09,27,6.50
2012,03,29,09,28,6.50
2012,03,29,09,29,6.60
2012,03,29,09,30,6.60
2012,03,29,09,31,6.60
2012,03,29,09,32,6.60
2012,03,29,09,33,6.60
2012,03,29,09,34,6.60
2012,03,29,09,35,6.60
2012,03,29,09,36,6.60
2012,03,29,09,37,6.60
2012,03,29,09,38,6.60
2012,03,29,09,39,6.60
2012,03,29,09,40,6.60
2012,03,29,09,41,6.60
2012,03,29,09,42,6.60
2012,03,29,09,43,6.70
2012,03,29,09,44,6.70
2012,03,29,09,45,6.70
2012,03,29,09,46,6.70
2012,03,29,09,47,6.70
2012,03,29,09,48,6.70
2012,03,29,09,49,6.70
2012,03,29,09,50,6.70
2012,03,29,09,51,6.70
2012,03,29,09,52,6.70
2012,03,29,09,53,6.70
2012,03,29,09,54,6.70
2012,03,29,09,55,6.70
2012,03,29,09,56,6.70
2012,03,29,09,57,6.70
2012,03,29,09,58,6.70
2012,03,29,09,59,6.70
2012,03,29,10,00,6.70
2012,03,29,10,01,6.70
2012,03,29,10,02,6.70
2012,03,29,10,03,6.70
2012,03,29,10,04,6.70
2012,03,29,10,05,6.60
2012,03,29,10,06,6.60
2012,03,29,10,07,6.60
2012,03,29,10,08,6.60
2012,03,29,10,09,6.60
2012,03,29,10,10,6.50
2012,03,29,10,11,6.50
2012,03,29,10,12,6.50
2012,03,29,10,13,6.40
2012,03,29,10,14,6.40
2012,03,29,10,15,6.40
2012,03,29,10,16,6.40
2012,03,29,10,17,6.40
2012,03,29,10,18,6.40
2012,03,29,10,19,6.50
2012,03,29,10,20,6.50
2012,03,29,10,21,6.50
2012,03,29,10,22,6.60
2012,03,29,10,23,6.60
2012,03,29,10,24,6.60
2012,03,29,10,25,6.60
2012,03,29,10,26,6.70
2012,03,29,10,27,6.70
2012,03,29,10,28,6.70
2012,03,29,10,29,6.70
2012,03,29,10,30,6.80
2012,03,29,10,31,6.80
2012,03,29,10,32,6.80
2012,03,29,10,33,6.80
2012,03,29,10,34,6.80
2012,03,29,10,35,6.80
2012,03,29,10,36,6.80
2012,03,29,10,37,6.80
2012,03,29,10,38,6.80
2012,03,29,10,39,6.80
2012,03,29,10,40,6.90
2012,03,29,10,41,6.90
2012,03,29,10,42,6.90
2012,03,29,10,43,6.90
2012,03,29,10,44,6.90
2012,03,29,10,45,6.90
2012,03,29,10,46,6.90
2012,03,29,10,47,7.00
2012,03,29,10,48,7.00
2012,03,29,10,49,7.00
2012,03,29,10,50,7.00
2012,03,29,10,51,7.00
2012,03,29,10,52,7.00
2012,03,29,10,53,6.90
2012,03,29,10,54,6.90
2012,03,29,10,55,6.90
2012,03,29,10,56,6.90
2012,03,29,10,57,6.90
2012,03,29,10,58,6.90
2012,03,29,10,59,7.00
2012,03,29,11,00,6.90
2012,03,29,11,01,6.90
2012,03,29,11,02,6.90
2012,03,29,11,03,6.90
2012,03,29,11,04,6.90
2012,03,29,11,05,6.90
2012,03,29,11,06,6.90
2012,03,29,11,07,6.90
2012,03,29,11,08,6.90
2012,03,29,11,09,6.80
2012,03,29,11,10,6.80
2012,03,29,11,11,6.80
2012,03,29,11,12,6.80
2012,03,29,11,13,6.80
2012,03,29,11,14,6.80
2012,03,29,11,15,6.80
2012,03,29,11,16,6.80
2012,03,29,11,17,6.80
2012,03,29,11,18,6.80
2012,03,29,11,19,6.80
2012,03,29,11,20,6.80
2012,03,29,11,21,6.90
2012,03,29,11,22,6.90
2012,03,29,11,23,6.90
2012,03,29,11,24,6.90
2012,03,29,11,25,6.90
2012,03,29,11,26,6.90
2012,03,29,11,27,6.90
2012,03,29,11,28,6.90
2012,03,29,11,29,6.90
2012,03,29,11,30,6.90
2012,03,29,11,31,6.90
2012,03,29,11,32,6.90
2012,03,29,11,33,6.90
2012,03,29,11,34,6.90
2012,03,29,11,35,7.00
2012,03,29,11,36,7.00
2012,03,29,11,37,7.10
2012,03,29,11,38,7.10
2012,03,29,11,39,7.10
2012,03,29,11,40,7.10
2012,03,29,11,41,7.20
2012,03,29,11,42,7.20
2012,03,29,11,43,7.20
2012,03,29,11,44,7.20
2012,03,29,11,45,7.20
2012,03,29,11,46,7.20
2012,03,29,11,47,7.20
2012,03,29,11,48,7.20
2012,03,29,11,49,7.20
2012,03,29,11,50,7.20
2012,03,29,11,51,7.20
2012,03,29,11,52,7.30
2012,03,29,11,53,7.30
2012,03,29,11,54,7.30
2012,03,29,11,55,7.30
2012,03,29,11,56,7.30
2012,03,29,11,57,7.30
2012,03,29,11,58,7.30
2012,03,29,11,59,7.30
2012,03,29,12,00,7.30
2012,03,29,12,01,7.20
2012,03,29,12,02,7.30
2012,03,29,12,03,7.30
2012,03,29,12,04,7.30
2012,03,29,12,05,7.30
2012,03,29,12,06,7.30
2012,03,29,12,07,7.30
2012,03,29,12,08,7.30
2012,03,29,12,09,7.30
2012,03,29,12,10,7.30
2012,03,29,12,11,7.30
2012,03,29,12,12,7.40
2012,03,29,12,13,7.40
2012,03,29,12,14,7.40
2012,03,29,12,15,7.40
2012,03,29,12,16,7.40
2012,03,29,12,17,7.50
2012,03,29,12,18,7.50
2012,03,29,12,19,7.50
2012,03,29,12,20,7.50
2012,03,29,12,21,7.50
2012,03,29,12,22,7.50
2012,03,29,12,23,7.50
2012,03,29,12,24,7.40
2012,03,29,12,25,7.40
2012,03,29,12,26,7.40
2012,03,29,12,27,7.40
2012,03,29,12,28,7.40
2012,03,29,12,29,7.40
2012,03,29,12,30,7.40
2012,03,29,12,31,7.40
2012,03,29,12,32,7.50
2012,03,29,12,33,7.50
2012,03,29,12,34,7.50
2012,03,29,12,35,7.50
2012,03,29,12,36,7.60
2012,03,29,12,37,7.50
2012,03,29,12,38,7.50
2012,03,29,12,39,7.50
2012,03,29,12,40,7.50
2012,03,29,12,41,7.50
2012,03,29,12,42,7.50
2012,03,29,12,43,7.50
2012,03,29,12,44,7.50
2012,03,29,12,45,7.50
2012,03,29,12,46,7.50
2012,03,29,12,47,7.50
2012,03,29,12,48,7.50
2012,03,29,12,49,7.50
2012,03,29,12,50,7.50
2012,03,29,12,51,7.60
2012,03,29,12,52,7.60
2012,03,29,12,53,7.50
2012,03,29,12,54,7.50
2012,03,29,12,55,7.50
2012,03,29,12,56,7.60
2012,03,29,12,57,7.60
2012,03,29,12,58,7.60
2012,03,29,12,59,7.60
2012,03,29,13,00,7.60
2012,03,29,13,01,7.60
2012,03,29,13,02,7.50
2012,03,29,13,03,7.50
2012,03,29,13,04,7.50
2012,03,29,13,05,7.50
2012,03,29,13,06,7.50
2012,03,29,13,07,7.50
2012,03,29,13,08,7.50
2012,03,29,13,09,7.50
2012,03,29,13,10,7.50
2012,03,29,13,11,7.50
2012,03,29,13,12,7.50
2012,03,29,13,13,7.50
2012,03,29,13,14,7.50
2012,03,29,13,15,7.50
2012,03,29,13,16,7.50
2012,03,29,13,17,7.50
2012,03,29,13,18,7.50
2012,03,29,13,19,7.50
2012,03,29,13,20,7.50
2012,03,29,13,21,7.50
2012,03,29,13,22,7.50
2012,03,29,13,23,7.40
2012,03,29,13,24,7.50
2012,03,29,13,25,7.40
2012,03,29,13,26,7.40
2012,03,29,13,27,7.40
2012,03,29,13,28,7.40
2012,03,29,13,29,7.40
2012,03,29,13,30,7.40
2012,03,29,13,31,7.40
2012,03,29,13,32,7.40
2012,03,29,13,33,7.40
2012,03,29,13,34,7.40
2012,03,29,13,35,7.40
2012,03,29,13,36,7.40
2012,03,29,13,37,7.40
2012,03,29,13,38,7.40
2012,03,29,13,39,7.40
2012,03,29,13,40,7.40
2012,03,29,13,41,7.40
2012,03,29,13,42,7.40
2012,03,29,13,43,7.30
2012,03,29,13,44,7.30
2012,03,29,13,45,7.30
2012,03,29,13,46,7.30
2012,03,29,13,47,7.20
2012,03,29,13,48,7.30
2012,03,29,13,49,7.20
2012,03,29,13,50,7.20
2012,03,29,13,51,7.20
2012,03,29,13,52,7.20
2012,03,29,13,53,7.20
2012,03,29,13,54,7.20
2012,03,29,13,55,7.20
2012,03,29,13,56,7.20
2012,03,29,13,57,7.20
2012,03,29,13,58,7.20
2012,03,29,13,59,7.20
2012,03,29,14,00,7.20
2012,03,29,14,01,7.20
2012,03,29,14,02,7.10
2012,03,29,14,03,7.10
2012,03,29,14,04,7.10
2012,03,29,14,05,7.10
2012,03,29,14,06,7.00
2012,03,29,14,07,7.00
2012,03,29,14,08,6.90
2012,03,29,14,09,6.90
2012,03,29,14,10,6.80
2012,03,29,14,11,6.80
2012,03,29,14,12,6.80
2012,03,29,14,13,6.80
2012,03,29,14,14,6.70
2012,03,29,14,15,6.70
2012,03,29,14,16,6.70
2012,03,29,14,17,6.70
2012,03,29,14,18,6.70
2012,03,29,14,19,6.60
2012,03,29,14,20,6.60
2012,03,29,14,21,6.60
2012,03,29,14,22,6.60
2012,03,29,14,23,6.50
2012,03,29,14,24,6.50
2012,03,29,14,25,6.50
2012,03,29,14,26,6.50
2012,03,29,14,27,6.50
2012,03,29,14,28,6.40
2012,03,29,14,29,6.40
2012,03,29,14,30,6.40
2012,03,29,14,31,6.40
2012,03,29,14,32,6.40
2012,03,29,14,33,6.40
2012,03,29,14,34,6.50
2012,03,29,14,35,6.50
2012,03,29,14,36,6.50
2012,03,29,14,37,6.50
2012,03,29,14,38,6.50
2012,03,29,14,39,6.50
2012,03,29,14,40,6.50
2012,03,29,14,41,6.50
2012,03,29,14,42,6.50
2012,03,29,14,43,6.50
2012,03,29,14,44,6.50
2012,03,29,14,45,6.60
2012,03,29,14,46,6.60
2012,03,29,14,47,6.60
2012,03,29,14,48,6.50
2012,03,29,14,49,6.60
2012,03,29,14,50,6.50
2012,03,29,14,51,6.50
2012,03,29,14,52,6.50
2012,03,29,14,53,6.50
2012,03,29,14,54,6.50
2012,03,29,14,55,6.50
2012,03,29,14,56,6.50
2012,03,29,14,57,6.50
2012,03,29,14,58,6.50
2012,03,29,14,59,6.50
2012,03,29,15,00,6.50
2012,03,29,15,01,6.50
2012,03,29,15,02,6.50
2012,03,29,15,03,6.40
2012,03,29,15,04,6.40
2012,03,29,15,05,6.50
2012,03,29,15,06,6.50
2012,03,29,15,07,6.50
2012,03,29,15,08,6.50
2012,03,29,15,09,6.50
2012,03,29,15,10,6.50
2012,03,29,15,11,6.50
2012,03,29,15,12,6.50
2012,03,29,15,13,6.50
2012,03,29,15,14,6.60
2012,03,29,15,15,6.60
2012,03,29,15,16,6.60
2012,03,29,15,17,6.60
2012,03,29,15,18,6.60
2012,03,29,15,19,6.60
2012,03,29,15,20,6.60
2012,03,29,15,21,6.60
2012,03,29,15,22,6.60
2012,03,29,15,23,6.60
2012,03,29,15,24,6.60
2012,03,29,15,25,6.60
2012,03,29,15,26,6.50
2012,03,29,15,27,6.50
2012,03,29,15,28,6.40
2012,03,29,15,29,6.40
2012,03,29,15,30,6.40
2012,03,29,15,31,6.40
2012,03,29,15,32,6.30
2012,03,29,15,33,6.30
2012,03,29,15,34,6.30
2012,03,29,15,35,6.30
2012,03,29,15,36,6.30
2012,03,29,15,37,6.30
2012,03,29,15,38,6.30
2012,03,29,15,39,6.30
2012,03,29,15,40,6.40
2012,03,29,15,41,6.40
2012,03,29,15,42,6.40
2012,03,29,15,43,6.40
2012,03,29,15,44,6.40
2012,03,29,15,45,6.40
2012,03,29,15,46,6.40
2012,03,29,15,47,6.40
2012,03,29,15,48,6.50
2012,03,29,15,49,6.50
2012,03,29,15,50,6.50
2012,03,29,15,51,6.60
2012,03,29,15,52,6.60
2012,03,29,15,53,6.60
2012,03,29,15,54,6.60
2012,03,29,15,55,6.60
2012,03,29,15,56,6.70
2012,03,29,15,57,6.70
2012,03,29,15,58,6.70
2012,03,29,15,59,6.70
2012,03,29,16,00,6.70
2012,03,29,16,01,6.80
2012,03,29,16,02,6.80
2012,03,29,16,03,6.80
2012,03,29,16,04,6.80
2012,03,29,16,05,6.80
2012,03,29,16,06,6.80
2012,03,29,16,07,6.80
2012,03,29,16,08,6.80
2012,03,29,16,09,6.90
2012,03,29,16,10,6.90
2012,03,29,16,11,6.90
2012,03,29,16,12,6.90
2012,03,29,16,13,6.90
2012,03,29,16,14,6.90
2012,03,29,16,15,6.90
2012,03,29,16,16,6.90
2012,03,29,16,17,6.90
2012,03,29,16,18,6.90
2012,03,29,16,19,6.80
2012,03,29,16,20,6.80
2012,03,29,16,21,6.80
2012,03,29,16,22,6.80
2012,03,29,16,23,6.70
2012,03,29,16,24,6.70
2012,03,29,16,25,6.70
2012,03,29,16,26,6.70
2012,03,29,16,27,6.70
2012,03,29,16,28,6.70
2012,03,29,16,29,6.70
2012,03,29,16,30,6.70
2012,03,29,16,31,6.70
2012,03,29,16,32,6.70
2012,03,29,16,33,6.70
2012,03,29,16,34,6.70
2012,03,29,16,35,6.70
2012,03,29,16,36,6.70
2012,03,29,16,37,6.70
2012,03,29,16,38,6.70
2012,03,29,16,39,6.70
2012,03,29,16,40,6.70
2012,03,29,16,41,6.70
2012,03,29,16,42,6.70
2012,03,29,16,43,6.70
2012,03,29,16,44,6.70
2012,03,29,16,45,6.70
2012,03,29,16,46,6.60
2012,03,29,16,47,6.60
2012,03,29,16,48,6.60
2012,03,29,16,49,6.60
2012,03,29,16,50,6.60
2012,03,29,16,51,6.60
2012,03,29,16,52,6.50
2012,03,29,16,53,6.50
2012,03,29,16,54,6.50
2012,03,29,16,55,6.50
2012,03,29,16,56,6.50
2012,03,29,16,57,6.50
2012,03,29,16,58,6.50
2012,03,29,16,59,6.50
2012,03,29,17,00,6.50
2012,03,29,17,01,6.50
2012,03,29,17,02,6.50
2012,03,29,17,03,6.50
2012,03,29,17,04,6.50
2012,03,29,17,05,6.40
2012,03,29,17,06,6.50
2012,03,29,17,07,6.50
2012,03,29,17,08,6.40
2012,03,29,17,09,6.40
2012,03,29,17,10,6.40
2012,03,29,17,11,6.40
2012,03,29,17,12,6.40
2012,03,29,17,13,6.40
2012,03,29,17,14,6.40
2012,03,29,17,15,6.40
2012,03,29,17,16,6.40
2012,03,29,17,17,6.40
2012,03,29,17,18,6.40
2012,03,29,17,19,6.40
2012,03,29,17,20,6.40
2012,03,29,17,21,6.40
2012,03,29,17,22,6.40
2012,03,29,17,23,6.40
2012,03,29,17,24,6.40
2012,03,29,17,25,6.30
2012,03,29,17,26,6.30
2012,03,29,17,27,6.30
2012,03,29,17,28,6.30
2012,03,29,17,29,6.30
2012,03,29,17,30,6.30
2012,03,29,17,31,6.30
2012,03,29,17,32,6.30
2012,03,29,17,33,6.30
2012,03,29,17,34,6.30
2012,03,29,17,35,6.30
2012,03,29,17,36,6.30
2012,03,29,17,37,6.30
2012,03,29,17,38,6.30
2012,03,29,17,39,6.30
2012,03,29,17,40,6.30
2012,03,29,17,41,6.30
2012,03,29,17,42,6.30
2012,03,29,17,43,6.20
2012,03,29,17,44,6.20
2012,03,29,17,45,6.20
2012,03,29,17,46,6.20
2012,03,29,17,47,6.20
2012,03,29,17,48,6.20
2012,03,29,17,49,6.20
2012,03,29,17,50,6.20
2012,03,29,17,51,6.20
2012,03,29,17,52,6.20
2012,03,29,17,53,6.20
2012,03,29,17,54,6.20
2012,03,29,17,55,6.20
2012,03,29,17,56,6.20
2012,03,29,17,57,6.20
2012,03,29,17,58,6.20
2012,03,29,17,59,6.20
2012,03,29,18,00,6.20
2012,03,29,18,01,6.20
2012,03,29,18,02,6.20
2012,03,29,18,03,6.20
2012,03,29,18,04,6.20
2012,03,29,18,05,6.20
2012,03,29,18,06,6.10